Find Starlink 2704

NORAD ID: 48643 Int'l Des: 2021-044 Owner: SPXS Country: US Constellation: starlink operational
LEOCIRCULAR

Live Position

Loading 3D Globe...

About Starlink 2704

Description loading...

Upcoming Passes

Passes for default location (London). Set your location on the main map for personalized predictions.

Altitude History

Loading altitude history...

Two-Line Element Set

1 48643U 21044F 26126.50059274 .00001143 00000-0 48582-4 0 9995
2 48643 53.1588 205.0803 0001009 98.2998 261.8117 15.31704345272684
Epoch: May 6, 2026 • Age: 5 hours

Current Status

Altitude 476.2 km
Velocity 7.63 km/s
Sub-Earth Point 51.11°N, 151.38°E
Launch Date May 26, 2021
Age 4.9 years
Type internet

Technical Details

Classification Payload
Mass 260.00 kg
Dry Mass 248.00 kg
Total Mass 260.00 kg
Length 0.20 m
Diameter 2.80 m
Span 9.00 m
Shape Box + pan
Manufacturer SPXS
Bus Type Starlink
Phase Status In Orbit
Owner/State SPXS/US

Most Searched